Regional Weather Roundup
Issued by NWS Columbia, SC

Home | Current Version | Previous Version | Text Only | Print | Product List | Glossary On
Versions: 1 2 3 4 5 6 7 8 9 10 11 12 13 14 15 16 17 18 19 20 21 22 23 24 25 26 27 28 29 30 31 32 33 34 35 36 37 38 39 40 41 42 43 44 45 46 47 48 49 50
115
ASUS42 KCAE 172210
RWRCAE
REGIONAL WEATHER ROUNDUP
NATIONAL WEATHER SERVICE COLUMBIA SC
500 PM EST SAT FEB 17 2018

NOTE: "FAIR" INDICATES FEW OR NO CLOUDS BELOW 12,000 FEET WITH NO
SIGNIFICANT WEATHER AND/OR OBSTRUCTIONS TO VISIBILITY.

NOT ALL STATIONS ARE QUALITY CONTROLLED BY THE NATIONAL
WEATHER SERVICE. USE DATA WITH CAUTION...ESPECIALLY
DEWPOINT OBSERVATIONS.

SCZ001>056-GAZ040-063>065-077-172300-
...UPSTATE SOUTH CAROLINA...

CITY           SKY/WX    TMP DP  RH WIND       PRES   REMARKS
ANDERSON       CLOUDY    50  48  93 NE3       30.10F
LIBERTY        CLOUDY    49  49 100 CALM      30.08F
SPARTANBURG    CLOUDY    46  43  87 N3        30.09F
CLEMSON        CLOUDY    50  47  89 CALM      30.09F
GREENVILLE     CLOUDY    49  47  93 CALM      30.09F
GREENWOOD      CLOUDY    53  51  93 N7        30.10F
GREER          CLOUDY    47  46  97 CALM      30.09F
ROCK HILL      CLOUDY    50  48  93 N9        30.09S
CHESTER        CLOUDY    50  50 100 N6        30.08F
LAURENS        CLOUDY    50  48  93 N5        30.10S


...CENTRAL SOUTH CAROLINA...

CITY           SKY/WX    TMP DP  RH WIND       PRES   REMARKS
COLUMBIA APT   PTSUNNY   69  61  75 E9        30.04F
COLUMBIA OWENS CLOUDY    67  58  72 VRB7      30.06F
MCENTIRE ANGB  FAIR      67  58  72 SE10      30.06F
ORANGEBURG     PTSUNNY   70  60  70 SE7       30.06F
SUMTER SHAW    FAIR      66  55  67 E9        30.05F
NEWBERRY       FAIR      55  50  82 N3        30.10F
AIKEN          CLOUDY    73  59  60 W13       30.08S
BARNWELL         N/A     79  63  57 SW7       30.06S
MANNING        FAIR      68  45  42 MISG      30.09F
CAMDEN         CLOUDY    63  55  77 SE7       30.08F
LANCASTER      MOCLDY    63  55  77 CALM      30.08F
WINNSBORO      CLOUDY    66  55  68 SE5       30.06F


...EASTERN AND COASTAL SOUTH CAROLINA...

CITY           SKY/WX    TMP DP  RH WIND       PRES   REMARKS
MYRTLE BEACH   CLOUDY    59  55  87 N6        30.13F
N MYRTLE BCH   CLOUDY    57  54  89 N8        30.12F
CONWAY         CLOUDY    57  55  94 CALM      30.13R FOG
MARION         CLOUDY    59  50  72 SE5       30.12F
HARTSVILLE     MOCLDY    61  54  77 S7        30.07F
FLORENCE       CLOUDY    61  53  75 SE13      30.10F
DARLINGTON     CLOUDY    61  54  77 SE12      30.09F
CHARLESTON APT PTSUNNY   70  61  73 SE8       30.10S
MOUNT PLEASANT MOCLDY    66  63  88 CALM      30.11R FOG
WALTERBORO     MOCLDY    72  61  68 S10       30.08F
BEAUFORT       FAIR      71  63  75 S9        30.09


...EASTERN GEORGIA...

CITY           SKY/WX    TMP DP  RH WIND       PRES   REMARKS
AUGUSTA BUSH F PTSUNNY   78  60  53 S10       30.03S
AUGUSTA DANIEL PTSUNNY   78  60  53 SW8       30.05S
THOMSON        PTSUNNY   66  57  72 NE3       30.11S
WASHINGTON     FAIR      59  54  82 N7        30.09R
CLAXTON        FAIR      79  60  52 S7        30.10R
SYLVANIA       FAIR      79  61  54 SW8       30.08F
STATESBORO     FAIR      80  53  39 SW15G22   30.08S
SAVANNAH       FAIR      78  62  57 S10       30.09S


...SOUTHERN NORTH CAROLINA...

CITY           SKY/WX    TMP DP  RH WIND       PRES   REMARKS
CHARLOTTE      LGT RAIN  49  47  93 N5        30.09F
MONROE         RAIN      54  52  93 CALM      30.08S FOG
WADESBORO      CLOUDY    55  50  83 CALM      30.08F
ROCKINGHAM     CLOUDY    56  52  84 S6        30.09S
RUTHERFORDTON  CLOUDY    45  45 100 CALM      30.09S
ASHEVILLE      CLOUDY    48  45  89 S5        30.03F

$$




USA.gov is the U.S. government's official web portal to all federal, state and local government web resources and services.